Regional Weather Roundup
Issued by NWS Albany, NY

Home | Current Version | Previous Version | Text Only | Print | Product List | Glossary On
Versions: 1 2 3 4 5 6 7 8 9 10 11 12 13 14 15 16 17 18 19 20 21 22 23 24 25 26 27 28 29 30 31 32 33 34 35 36 37 38 39 40 41 42 43 44 45 46 47 48 49 50
000
ASUS41 KALY 191410
RWRALY

NEW YORK STATE HOURLY WEATHER ROUNDUP
NATIONAL WEATHER SERVICE ALBANY NY
1000 AM EDT TUE SEP 19 2017

NOTE: "FAIR" INDICATES FEW OR NO CLOUDS BELOW 12,000 FEET WITH NO
SIGNIFICANT WEATHER AND/OR NO OBSTRUCTIONS TO VISIBILITY.

NYZ032-033-038>043-046>054-057>066-NYZ062>081-082-084-191500-
EAST


CITY           SKY/WX    TMP DP  RH WIND       PRES   REMARKS
ALBANY         MOSUNNY   71  62  73 CALM      30.12R
GLENS FALLS    SUNNY     69  61  75 NE6       30.11S
POUGHKEEPSIE   CLOUDY    72  64  76 N9        30.06F
NEWBURGH       CLOUDY    70  66  88 NE14      30.08S
MONTGOMERY     CLOUDY    70  63  78 NE15      30.07S
WHITE PLAINS   MOSUNNY   71  64  78 NE12G17   30.03S
ISLIP          CLOUDY    70  65  84 NE24      30.00S
NEW YORK CITY  PTSUNNY   73  66  78 NE18      30.01R
CENTRAL PARK   CLOUDY    73  64  73 E8G22     30.04S
$$

NYZ005>009-017-018-044>046-055-056-191500-
CENTRAL


CITY           SKY/WX    TMP DP  RH WIND       PRES   REMARKS
FULTON         SUNNY     72  64  76 SE6       30.08S
SYRACUSE       MOSUNNY   70  64  81 E6        30.08R
ROME           MOSUNNY   69  63  81 E8        30.11F
ELMIRA         CLOUDY    64  64 100 CALM      30.09S FOG
BINGHAMTON     SUNNY     65  59  81 E6        30.11S
MONTICELLO     MOSUNNY   68  63  83 E8        30.12S
$$

NYZ026>034-041>043-087-191500-
NORTH


CITY           SKY/WX    TMP DP  RH WIND       PRES   REMARKS
WATERTOWN      SUNNY     73  65  75 VRB5      30.08R
FORT DRUM      NOT AVBL
OGDENSBURG     FAIR      74  64  70 S7        30.08S
MASSENA        SUNNY     73  66  78 SW5       30.09S
SARANAC LAKE   SUNNY     68  63  84 CALM      30.13S
PLATTSBURGH    MOSUNNY   71  63  75 SE7       30.11S
$$

NYZ001>004-010>016-019>021-085-191500-
WEST


CITY           SKY/WX    TMP DP  RH WIND       PRES   REMARKS
NIAGARA FALLS  CLOUDY    74  64  71 S6        30.03S
BUFFALO        PTSUNNY   72  64  76 S8        30.05R
DUNKIRK        MOSUNNY   75  65  70 CALM      30.04S
JAMESTOWN      CLOUDY    63  61  93 S8        30.11R
WELLSVILLE     MOSUNNY   66  58  75 CALM      30.13F
ROCHESTER      MOSUNNY   72  64  76 S9        30.06S
PENN YAN       SUNNY     69  60  73 S10       30.10R
$$

             KEY
       WCI = WIND CHILL INDEX
       VSB = VISIBILITY
       HX  = HEAT INDEX
$$



USA.gov is the U.S. government's official web portal to all federal, state and local government web resources and services.